Regional Weather Roundup
Issued by NWS

Home | Current Version | Previous Version | Graphics & Text | Print | Product List | Glossary On
Versions: 1 2 3 4 5 6 7 8 9 10 11 12 13 14 15 16 17 18 19 20 21 22 23 24 25 26 27 28 29 30 31 32 33 34 35 36 37 38 39 40 41 42 43 44 45 46 47 48 49 50
000
ASUS45 KPSR 271800
RWRAZ

PRELIMINARY ARIZONA REGIONAL HOURLY WEATHER ROUNDUP
NATIONAL WEATHER SERVICE PHOENIX AZ
1100 AM MST TUE JAN 27 2015

NOTE: FAIR INDICATES FEW OR NO CLOUDS BELOW 12,000 FEET WITH NO
SIGNIFICANT WEATHER AND/OR OBSTRUCTIONS TO VISIBILITY.

AZZ001>003-036-271900-
NORTHWEST ARIZONA

CITY           SKY/WX    TMP DP  RH WIND       PRES   REMARKS
KINGMAN        SUNNY     57  46  66 CALM      30.29S
6HR MIN TEMP:  43; 6HR MAX TEMP:  57; 6HR PCP: TRACE;

$$

AZZ004>008-015-016-018-271900-
NORTH CENTRAL ARIZONA

CITY           SKY/WX    TMP DP  RH WIND       PRES   REMARKS
GRAND CANYON   LGT RAIN  43  41  93 S7        30.36R FOG
6HR MIN TEMP:  38; 6HR MAX TEMP:  44; 6HR PCP:  0.05;

PRESCOTT       MOSUNNY   52  41  66 SE7       30.33R
6HR MIN TEMP:  43; 6HR MAX TEMP:  53; 6HR PCP:  0.04;

FLAGSTAFF      NOT AVBL
PAYSON         CLOUDY    54  36  50 CALM      30.36S
$$

AZZ009>014-017-271900-
NORTHEAST ARIZONA

CITY           SKY/WX    TMP DP  RH WIND       PRES   REMARKS
WINSLOW        NOT AVBL
SAINT JOHNS    SUNNY     53  39  59 NE3       30.35F
6HR MIN TEMP:  32; 6HR MAX TEMP:  53; 6HR PCP: TRACE;

WINDOW ROCK    MOSUNNY   53  35  50 SW8       30.38F
6HR MIN TEMP:  28; 6HR MAX TEMP:  53;

SHOW LOW       CLOUDY    50  36  57 SW8       30.39S
$$

AZZ023-271900-
GREATER PHOENIX AREA

CITY           SKY/WX    TMP DP  RH WIND       PRES   REMARKS
PHOENIX        PTSUNNY   60  51  72 E6        30.25R
6HR MIN TEMP:  53; 6HR MAX TEMP:  61;

GLENDALE       MOSUNNY   63  54  72 NE6       30.27R
DEER VALLEY    SUNNY     62  48  60 SE7       30.25R
6HR MIN TEMP:  53; 6HR MAX TEMP:  62;

SCOTTSDALE     MOSUNNY   59  52  77 CALM      30.27S
6HR MIN TEMP:  53; 6HR MAX TEMP:  59; 6HR PCP:  0.03;

MESA-FALCON    PTSUNNY   59  46  63 N6        30.25F
MESA-GATEWAY   MOSUNNY   59  52  77 NE5       30.28R
CHANDLER       PTSUNNY   61  54  77 VRB5      30.27R
$$

AZZ027-028-271900-
SOUTHWEST MARICOPA COUNTY AND PINAL COUNTY

CITY           SKY/WX    TMP DP  RH WIND       PRES   REMARKS
CASA GRANDE    PTSUNNY   59  48  67 CALM      30.26S
6HR MIN TEMP:  48; 6HR MAX TEMP:  59; 6HR PCP:  0.01;

GILA BEND      MOCLDY    63  50  61 NE2       30.24S
6HR MIN TEMP:  50; 6HR MAX TEMP:  63;

$$

AZZ503-504-507>509-271900-
SOUTHEAST ARIZONA

CITY           SKY/WX    TMP DP  RH WIND       PRES   REMARKS
TUCSON         MOSUNNY   64  47  53 S3        30.27S
6HR MIN TEMP:  51; 6HR MAX TEMP:  65; 6HR PCP:  0.06;

DAVIS-MONTHAN  MOSUNNY   67  42  38 CALM      30.25S
6HR MIN TEMP:  52; 6HR MAX TEMP:  67; 6HR PCP:  0.02;

RYAN FIELD       N/A     64  52  63 E8        30.27R
NOGALES        SUNNY     63  47  55 SW3       30.28S
6HR MIN TEMP:  45; 6HR MAX TEMP:  63;

SIERRA VISTA   MOSUNNY   63  36  36 E5        30.31S
DOUGLAS        MOSUNNY   63  33  32 VRB3      30.31F
6HR MIN TEMP:  41; 6HR MAX TEMP:  63;

SAFFORD        SUNNY     63  36  36 S9        30.29F
6HR MIN TEMP:  48; 6HR MAX TEMP:  63;

$$

AZZ020-021-025-026-031-271900-
SOUTHWEST ARIZONA

CITY           SKY/WX    TMP DP  RH WIND       PRES   REMARKS
YUMA           NOT AVBL
$$

CAZ031-033-041-043-047-048-061-271900-
SOUTHERN CALIFORNIA

CITY           SKY/WX    TMP DP  RH WIND       PRES   REMARKS
DOWNTOWN L.A.  SUNNY     65  52  62 E3        30.19S
6HR MIN TEMP:  58; 6HR MAX TEMP:  66;

L.A. AIRPORT   MOSUNNY   65  54  67 VRB5      30.20S
6HR MIN TEMP:  55; 6HR MAX TEMP:  65;

SAN DIEGO      MOSUNNY   68  50  52 CALM      30.20R
6HR MIN TEMP:  55; 6HR MAX TEMP:  68;

BURBANK        SUNNY     62  53  72 SW3       30.20S
6HR MIN TEMP:  54; 6HR MAX TEMP:  63; 6HR PCP:  0.01;

ONTARIO        MOSUNNY   64  52  64 VRB3      30.21S
6HR MIN TEMP:  56; 6HR MAX TEMP:  64;

RIVERSIDE      SUNNY     63  53  70 VRB3      30.21S
6HR MIN TEMP:  54; 6HR MAX TEMP:  63;

PALM SPRINGS   PTSUNNY   64  53  67 CALM      30.26S
6HR MIN TEMP:  58; 6HR MAX TEMP:  64;

EL CENTRO NAS  PTSUNNY   61  56  83 CALM      30.25R
6HR MIN TEMP:  54; 6HR MAX TEMP:  61;

IMPERIAL       PTSUNNY   61  55  81 CALM      30.24S
6HR MIN TEMP:  51; 6HR MAX TEMP:  61;

BLYTHE         MOSUNNY   60  54  80 CALM      30.26R
6HR MIN TEMP:  53; 6HR MAX TEMP:  61; 6HR PCP: TRACE;

NEEDLES        CLOUDY    58  53  84 CALM      30.28R
6HR MIN TEMP:  55; 6HR MAX TEMP:  58;

$$

NVZ020-UTZ003-271900-
SOUTHERN NEVADA-UTAH

CITY           SKY/WX    TMP DP  RH WIND       PRES   REMARKS
LAS VEGAS      NOT AVBL
SALT LAKE CITY CLOUDY    42  35  76 NE6       30.23S
6HR MIN TEMP:  29; 6HR MAX TEMP:  42;

$$

NMZ009-TXZ055-271900-
NEW MEXICO-WEST TEXAS

CITY           SKY/WX    TMP DP  RH WIND       PRES   REMARKS
ALBUQUERQUE    PTSUNNY   45  28  51 CALM      30.38S
6HR MIN TEMP:  27; 6HR MAX TEMP:  46;

EL PASO        MOSUNNY   58  30  34 CALM      30.33F
6HR MIN TEMP:  46; 6HR MAX TEMP:  58;

$$


........................KEY........................
SKY/WX - SKY CONDITION/WEATHER
TMP    - TEMPERATURE IN FAHRENHEIT
DP     - DEW POINT IN FAHRENHEIT
RH     - RELATIVE HUMIDITY IN PERCENT
WIND   - DIRECTION AND SPEED IN MILES PER HOUR (MPH)
VRB    - VARIABLE WIND DIRECTION
PRES   - MEAN SEA LEVEL PRESSURE IN INCHES OF MERCURY
         F - FALLING PRESSURE   R - RISING PRESSURE
         S - STEADY PRESSURE
VSB    - VISIBILITY IN MILES
HX     - HEAT INDEX IN FAHRENHEIT
WCI    - WIND CHILL INDEX IN FAHRENHEIT
TC     - TEMPERATURE IN CELSIUS WHICH IS ALSO KNOWN AS
         TEMPERATURE IN CENTIGRADE
AFB    - AIR FORCE BASE
         LUKE AFB IS LUKE AIR FORCE BASE
         DAVIS-MONTHAN IS DAVIS-MONTHAN AIR FORCE BASE
NAS    - NAVAL AIR STATION
         EL CENTRO NAS IS EL CENTRO NAVAL AIR STATION
N/A    - NOT AVAILABLE


USA.gov is the U.S. government's official web portal to all federal, state and local government web resources and services.